DW4879 Weather Reports


time (UTC)temp
F
wind
direction
speed
knots
gust
knots
rain 1hr
in
rain 24hr
in
rain mn
in
humidity
%
barometer
mb
20220629044510 70 45 7.8 11.3 0.00 0.00 0.00 48 1023.6
20220629044007 70 45 7.0 9.6 0.00 0.00 0.00 48 1023.6
20220629043506 70 45 7.8 10.4 0.00 0.00 0.00 48 1023.2
20220629043005 70 45 7.8 10.4 0.00 0.00 0.00 47 1023.2
20220629042503 70 45 8.7 10.4 0.00 0.00 0.00 47 1023.2
20220629042008 71 45 8.7 10.4 0.00 0.00 0.00 46 1023.2
20220629041506 71 45 7.0 10.4 0.00 0.00 0.00 46 1023.2
20220629041005 71 45 0.0 8.7 0.00 0.00 0.00 46 1023.2
20220629040503 72 45 0.0 7.8 0.00 0.00 0.00 45 1023.2
20220629040009 72 45 7.0 11.3 0.00 0.00 0.00 44 1023.2
20220629035506 72 45 7.8 10.4 0.00 0.00 0.00 43 1022.9
20220629035005 73 45 7.8 8.7 0.00 0.00 0.00 43 1022.9
20220629034509 73 45 7.8 9.6 0.00 0.00 0.00 43 1022.9
20220629034006 74 45 7.8 9.6 0.00 0.00 0.00 41 1022.9
20220629033505 74 45 8.7 13.9 0.00 0.00 0.00 40 1022.6
20220629033004 74 45 8.7 13.0 0.00 0.00 0.00 39 1022.6
20220629032509 74 45 9.6 13.0 0.00 0.00 0.00 39 1022.2
20220629032007 74 45 7.8 12.2 0.00 0.00 0.00 38 1022.2
20220629031506 74 45 7.0 7.8 0.00 0.00 0.00 39 1022.2
20220629031005 75 45 7.8 11.3 0.00 0.00 0.00 38 1022.2
20220629030503 75 45 7.8 11.3 0.00 0.00 0.00 39 1022.2
20220629030008 75 45 7.8 12.2 0.00 0.00 0.00 38 1022.2
20220629025506 75 45 8.7 8.7 0.00 0.00 0.00 37 1022.2
20220629025005 76 45 8.7 16.5 0.00 0.00 0.00 37 1022.2
20220629024510 76 45 8.7 11.3 0.00 0.00 0.00 37 1021.9
20220629024008 76 45 10.4 17.4 0.00 0.00 0.00 36 1021.9
20220629023505 76 45 9.6 15.6 0.00 0.00 0.00 36 1021.9
20220629023004 77 45 10.4 14.8 0.00 0.00 0.00 35 1021.9
20220629022503 77 45 10.4 15.6 0.00 0.00 0.00 34 1021.5
20220629022007 77 45 9.6 16.5 0.00 0.00 0.00 32 1021.5
20220629021506 77 45 9.6 10.4 0.00 0.00 0.00 32 1021.9
20220629021009 78 45 0.0 9.6 0.00 0.00 0.00 32 1021.9
20220629020507 78 45 0.0 12.2 0.00 0.00 0.00 32 1021.9
20220629020008 79 45 8.7 14.8 0.00 0.00 0.00 32 1021.9
20220629015507 79 45 8.7 9.6 0.00 0.00 0.00 31 1021.5
20220629015006 79 45 9.6 13.0 0.00 0.00 0.00 31 1021.5
20220629014504 80 45 10.4 11.3 0.00 0.00 0.00 33 1021.2
20220629014009 81 45 9.6 13.0 0.00 0.00 0.00 31 1021.2
20220629013507 81 45 12.2 13.9 0.00 0.00 0.00 31 1021.2
20220629013005 82 45 11.3 16.5 0.00 0.00 0.00 30 1021.2
20220629012504 82 45 9.6 15.6 0.00 0.00 0.00 29 1020.9
20220629012004 83 45 8.7 11.3 0.00 0.00 0.00 29 1020.9
20220629011508 83 45 9.6 7.0 0.00 0.00 0.00 24 1020.5
20220629011007 83 45 10.4 14.8 0.00 0.00 0.00 23 1020.5
20220629010505 83 45 10.4 13.9 0.00 0.00 0.00 23 1020.5
20220629010004 84 45 11.3 13.9 0.00 0.00 0.00 22 1020.5
20220629005503 83 45 10.4 15.6 0.00 0.00 0.00 23 1020.5
20220629005007 84 45 8.7 11.3 0.00 0.00 0.00 22 1020.5
20220629004506 84 45 8.7 11.3 0.00 0.00 0.00 21 1020.2
20220629004005 84 45 8.7 13.0 0.00 0.00 0.00 22 1020.2
20220629003503 84 45 10.4 10.4 0.00 0.00 0.00 22 1020.2
20220629003008 85 45 8.7 12.2 0.00 0.00 0.00 22 1020.2
20220629002507 84 45 8.7 12.2 0.00 0.00 0.00 22 1020.5
20220629002006 84 45 7.8 8.7 0.00 0.00 0.00 24 1020.5
20220629001504 83 45 7.8 8.7 0.00 0.00 0.00 24 1020.5
20220629001007 84 45 0.0 13.0 0.00 0.00 0.00 25 1020.5
20220629000506 84 45 0.0 7.8 0.00 0.00 0.00 25 1020.2
20220629000007 84 45 7.0 13.9 0.00 0.00 0.00 24 1020.2
20220628235505 85 45 7.0 6.1 0.00 0.00 0.00 24 1020.2
20220628235009 86 45 7.8 9.6 0.00 0.00 0.00 24 1020.2
20220628234508 85 45 8.7 7.0 0.00 0.00 0.00 24 1020.2
20220628234007 85 45 8.7 13.0 0.00 0.00 0.00 25 1020.2
20220628233504 85 315 6.1 12.2 0.00 0.00 0.00 25 1020.5
20220628233007 86 45 5.2 5.2 0.00 0.00 0.00 26 1020.5
20220628232505 85 45 7.8 13.0 0.00 0.00 0.00 26 1020.5
20220628232005 86 45 7.0 7.0 0.00 0.00 0.00 24 1020.5
20220628231509 86 45 0.0 7.0 0.00 0.00 0.00 25 1020.9
20220628231056 85 315 0.0 0.9 0.00 0.00 0.00 27 1020.9
20220628215007 86 135 2.6 4.3 0.00 0.00 0.00 25 1021.2
20220628214506 85 225 4.3 7.8 0.00 0.00 0.00 27 1021.5
20220628214004 85 225 2.6 5.2 0.00 0.00 0.00 29 1021.5
20220628213509 85 315 1.7 3.5 0.00 0.00 0.00 29 1021.9
20220628213006 86 135 0.9 1.7 0.00 0.00 0.00 28 1021.9
20220628212504 85 135 2.6 2.6 0.00 0.00 0.00 24 1022.2
20220628212009 86 135 3.5 4.3 0.00 0.00 0.00 27 1022.2
20220628211507 86 135 4.3 3.5 0.00 0.00 0.00 26 1021.9
20220628211006 87 225 4.3 7.8 0.00 0.00 0.00 26 1021.9
20220628210503 87 225 5.2 6.1 0.00 0.00 0.00 27 1021.5
20220628210008 88 135 6.1 7.8 0.00 0.00 0.00 26 1021.5
20220628205507 89 135 3.5 10.4 0.00 0.00 0.00 24 1021.9
20220628205005 90 225 5.2 4.3 0.00 0.00 0.00 25 1021.9
20220628204509 90 225 6.1 7.8 0.00 0.00 0.00 27 1021.9
20220628204006 90 225 7.0 11.3 0.00 0.00 0.00 24 1021.9
20220628203504 89 225 3.5 10.4 0.00 0.00 0.00 27 1021.9
20220628203008 89 135 5.2 2.6 0.00 0.00 0.00 26 1021.9
20220628202507 88 135 4.3 8.7 0.00 0.00 0.00 25 1021.9
20220628202006 89 225 3.5 7.0 0.00 0.00 0.00 27 1021.9
20220628201504 89 135 2.6 5.2 0.00 0.00 0.00 25 1022.2
20220628201008 88 135 0.0 7.0 0.00 0.00 0.00 24 1022.2
20220628200506 88 135 0.0 6.1 0.00 0.00 0.00 25 1022.6
20220628200004 88 135 3.5 7.0 0.00 0.00 0.00 25 1022.6
20220628195509 88 225 4.3 6.1 0.00 0.00 0.00 28 1022.9
20220628195006 87 225 4.3 8.7 0.00 0.00 0.00 29 1022.9
20220628194504 87 45 2.6 5.2 0.00 0.00 0.00 30 1022.9
20220628194009 87 135 4.3 6.1 0.00 0.00 0.00 27 1022.9
20220628193507 87 225 6.1 7.8 0.00 0.00 0.00 29 1023.2
20220628193006 86 135 3.5 8.7 0.00 0.00 0.00 29 1023.2
20220628192504 86 225 0.9 1.7 0.00 0.00 0.00 31 1023.2
20220628192009 86 225 2.6 4.3 0.00 0.00 0.00 33 1023.2
20220628191507 85 315 3.5 4.3 0.00 0.00 0.00 33 1023.2
20220628191006 85 45 3.5 4.3 0.00 0.00 0.00 31 1023.2
20220628190505 85 135 4.3 6.1 0.00 0.00 0.00 31 1023.6
20220628190008 85 135 4.3 7.0 0.00 0.00 0.00 31 1023.6
20220628185506 85 135 5.2 7.0 0.00 0.00 0.00 32 1023.9
20220628185005 85 135 6.1 7.8 0.00 0.00 0.00 33 1023.9
20220628184509 86 135 3.5 7.8 0.00 0.00 0.00 32 1023.9
20220628184007 87 315 1.7 3.5 0.00 0.00 0.00 32 1023.9
20220628183505 86 315 2.6 3.5 0.00 0.00 0.00 32 1024.3
20220628183007 86 135 2.6 4.3 0.00 0.00 0.00 33 1024.3
20220628182505 85 315 1.7 5.2 0.00 0.00 0.00 35 1024.3
20220628182009 85 225 1.7 0.0 0.00 0.00 0.00 34 1024.3
20220628181506 84 225 2.6 3.5 0.00 0.00 0.00 36 1024.6
20220628181005 84 225 0.0 5.2 0.00 0.00 0.00 36 1024.6
20220628180509 83 135 0.0 7.0 0.00 0.00 0.00 38 1024.6
20220628180003 83 135 5.2 5.2 0.00 0.00 0.00 35 1024.6
20220628175508 83 135 2.6 6.1 0.00 0.00 0.00 38 1024.6
20220628175006 83 135 1.7 0.9 0.00 0.00 0.00 38 1024.6
20220628174505 82 135 5.2 1.7 0.00 0.00 0.00 40 1024.9
20220628174003 82 135 4.3 8.7 0.00 0.00 0.00 40 1024.9
20220628173508 82 225 2.6 3.5 0.00 0.00 0.00 39 1024.9
20220628173006 82 225 2.6 5.2 0.00 0.00 0.00 40 1024.9
20220628172505 81 135 5.2 7.8 0.00 0.00 0.00 41 1025.3
20220628172003 81 135 2.6 7.8 0.00 0.00 0.00 40 1025.3
20220628171508 80 135 3.5 2.6 0.00 0.00 0.00 41 1025.3
20220628171007 79 135 5.2 7.8 0.00 0.00 0.00 41 1025.3
20220628170506 80 135 5.2 7.8 0.00 0.00 0.00 40 1025.3
20220628170005 80 135 5.2 7.0 0.00 0.00 0.00 40 1025.3
20220628165509 79 135 5.2 7.0 0.00 0.00 0.00 38 1025.3
20220628165006 80 135 4.3 7.0 0.00 0.00 0.00 40 1025.3
20220628164504 79 135 4.3 8.7 0.00 0.00 0.00 40 1025.6
20220628164009 79 135 5.2 7.8 0.00 0.00 0.00 39 1025.6
20220628163507 79 135 5.2 7.8 0.00 0.00 0.00 40 1025.6
20220628163004 79 135 5.2 7.0 0.00 0.00 0.00 41 1025.6
20220628162508 79 225 3.5 5.2 0.00 0.00 0.00 39 1025.6
20220628162006 79 225 5.2 6.1 0.00 0.00 0.00 41 1025.6
20220628161508 79 225 3.5 7.0 0.00 0.00 0.00 43 1025.9
20220628161007 79 45 0.0 5.2 0.00 0.00 0.00 41 1025.9
20220628160506 78 135 0.0 4.3 0.00 0.00 0.00 41 1025.9
20220628160008 78 225 2.6 5.2 0.00 0.00 0.00 43 1025.9
20220628155507 77 135 3.5 5.2 0.00 0.00 0.00 45 1025.9
20220628155004 77 135 2.6 6.1 0.00 0.00 0.00 43 1025.9
20220628154509 76 135 5.2 7.0 0.00 0.00 0.00 47 1025.9
20220628154008 76 135 4.3 8.7 0.00 0.00 0.00 49 1025.9
20220628153507 75 135 4.3 5.2 0.00 0.00 0.00 49 1026.3
20220628153005 75 135 3.5 7.0 0.00 0.00 0.00 48 1026.3
20220628152510 74 135 4.3 6.1 0.00 0.00 0.00 51 1026.6
20220628152008 74 135 5.2 7.0 0.00 0.00 0.00 53 1026.6
20220628151507 74 135 5.2 7.0 0.00 0.00 0.00 54 1026.6
20220628151005 74 45 5.2 7.8 0.00 0.00 0.00 55 1026.6
20220628150504 73 135 5.2 8.7 0.00 0.00 0.00 55 1026.3
20220628150007 73 135 5.2 8.7 0.00 0.00 0.00 55 1026.3
20220628145506 73 135 5.2 6.1 0.00 0.00 0.00 55 1026.6
20220628145005 73 135 4.3 6.1 0.00 0.00 0.00 56 1026.6
20220628144503 72 135 5.2 5.2 0.00 0.00 0.00 58 1026.6
20220628144007 72 135 5.2 6.1 0.00 0.00 0.00 58 1026.6
20220628143507 72 135 2.6 6.1 0.00 0.00 0.00 59 1026.6
20220628143005 71 135 2.6 2.6 0.00 0.00 0.00 61 1026.6
20220628142504 70 135 4.3 4.3 0.00 0.00 0.00 65 1026.6
20220628142009 70 135 3.5 7.0 0.00 0.00 0.00 65 1026.6
20220628141507 70 45 3.5 3.5 0.00 0.00 0.00 66 1026.6
20220628141007 70 45 0.0 7.0 0.00 0.00 0.00 67 1026.6
20220628140506 69 45 0.0 5.2 0.00 0.00 0.00 68 1026.6
20220628140005 69 135 2.6 4.3 0.00 0.00 0.00 64 1026.6
20220628135504 68 135 1.7 4.3 0.00 0.00 0.00 68 1026.6
20220628135008 68 135 2.6 2.6 0.00 0.00 0.00 70 1026.6
20220628134506 67 135 3.5 3.5 0.00 0.00 0.00 70 1026.6
20220628134005 67 135 3.5 4.3 0.00 0.00 0.00 71 1026.6
20220628133503 66 135 4.3 6.1 0.00 0.00 0.00 72 1026.6
20220628133002 66 135 4.3 6.1 0.00 0.00 0.00 74 1026.6
20220628132507 65 135 4.3 7.8 0.00 0.00 0.00 76 1026.6
20220628132006 65 135 5.2 4.3 0.00 0.00 0.00 77 1026.6
20220628131504 64 135 6.1 8.7 0.00 0.00 0.00 79 1026.6
20220628131003 64 135 5.2 8.7 0.00 0.00 0.00 79 1026.6
20220628130508 64 135 5.2 6.1 0.00 0.00 0.00 81 1026.6
20220628130005 63 135 5.2 7.0 0.00 0.00 0.00 80 1026.6
20220628125504 63 135 5.2 5.2 0.00 0.00 0.00 83 1026.6
20220628125008 63 135 4.3 6.1 0.00 0.00 0.00 84 1026.6
20220628124506 62 135 4.3 5.2 0.00 0.00 0.00 85 1026.6
20220628124003 62 135 3.5 4.3 0.00 0.00 0.00 86 1026.6
20220628123508 61 135 3.5 4.3 0.00 0.00 0.00 89 1026.6
20220628123007 61 135 4.3 5.2 0.00 0.00 0.00 89 1026.6
20220628122505 60 135 4.3 6.1 0.00 0.00 0.00 90 1027.0
20220628122005 60 135 3.5 5.2 0.00 0.00 0.00 90 1027.0
20220628121504 60 135 2.6 4.3 0.00 0.00 0.00 90 1026.6
20220628121008 60 135 0.0 3.5 0.00 0.00 0.00 90 1026.6
20220628120508 60 135 0.0 4.3 0.00 0.00 0.00 90 1026.6
20220628120006 60 135 3.5 4.3 0.00 0.00 0.00 90 1026.6
20220628115504 60 135 2.6 4.3 0.00 0.00 0.00 90 1026.6
20220628115009 60 135 3.5 2.6 0.00 0.00 0.00 90 1026.6
20220628114507 60 135 3.5 5.2 0.00 0.00 0.00 90 1026.3
20220628114005 60 135 3.5 4.3 0.00 0.00 0.00 90 1026.3
20220628113504 60 135 2.6 5.2 0.00 0.00 0.00 90 1026.6
20220628113009 61 135 1.7 3.5 0.00 0.00 0.00 90 1026.6
20220628112506 60 135 0.9 0.0 0.00 0.00 0.00 90 1026.6
20220628112005 61 135 2.6 2.6 0.00 0.00 0.00 90 1026.6
20220628111509 61 135 0.9 2.6 0.00 0.00 0.00 90 1026.6
20220628111007 61 135 1.7 1.7 0.00 0.00 0.00 90 1026.6
20220628110505 61 135 2.6 2.6 0.00 0.00 0.00 90 1026.6
20220628110004 61 135 1.7 4.3 0.00 0.00 0.00 90 1026.6
20220628105509 61 135 2.6 2.6 0.00 0.00 0.00 90 1026.6
20220628105008 61 135 2.6 3.5 0.00 0.00 0.00 90 1026.6
20220628104507 61 135 2.6 3.5 0.00 0.00 0.00 90 1026.6
20220628104006 62 135 2.6 4.3 0.00 0.00 0.00 90 1026.6
20220628103505 61 135 1.7 3.5 0.00 0.00 0.00 90 1026.3
20220628103004 62 135 1.7 3.5 0.00 0.00 0.00 90 1026.3
20220628102508 62 135 1.7 2.6 0.00 0.00 0.00 90 1026.3
20220628102007 62 135 2.6 1.7 0.00 0.00 0.00 89 1026.3
20220628101505 62 135 4.3 4.3 0.00 0.00 0.00 89 1026.3
20220628101003 62 135 0.0 6.1 0.00 0.00 0.00 89 1026.3
20220628100508 62 135 0.0 6.1 0.00 0.00 0.00 89 1026.6
20220628100007 63 135 3.5 3.5 0.00 0.00 0.00 89 1026.6
20220628095506 63 135 2.6 5.2 0.00 0.00 0.00 89 1026.6
20220628095004 63 135 2.6 3.5 0.00 0.00 0.00 88 1026.6
20220628094508 63 135 3.5 5.2 0.00 0.00 0.00 88 1026.3
20220628094006 63 135 4.3 5.2 0.00 0.00 0.00 88 1026.3
20220628093504 63 135 4.3 5.2 0.00 0.00 0.00 87 1026.3
20220628093008 64 135 5.2 6.1 0.00 0.00 0.00 88 1026.3
20220628092506 63 135 4.3 7.0 0.00 0.00 0.00 87 1026.3
20220628092004 64 135 4.3 5.2 0.00 0.00 0.00 88 1026.3
20220628091508 63 135 5.2 5.2 0.00 0.00 0.00 87 1026.6
20220628091005 64 135 5.2 6.1 0.00 0.00 0.00 88 1026.6
20220628090504 64 135 4.3 7.0 0.00 0.00 0.00 88 1026.6
20220628090008 64 135 2.6 3.5 0.00 0.00 0.00 88 1026.6
20220628085505 64 135 1.7 3.5 0.00 0.00 0.00 88 1026.6
20220628085008 64 135 1.7 3.5 0.00 0.00 0.00 88 1026.6
20220628084506 64 135 0.9 2.6 0.00 0.00 0.00 88 1026.6
20220628084005 64 135 2.6 3.5 0.00 0.00 0.00 88 1026.6
20220628083503 64 135 1.7 4.3 0.00 0.00 0.00 88 1026.3
20220628083007 65 135 1.7 0.9 0.00 0.00 0.00 87 1026.3
20220628082506 65 135 2.6 4.3 0.00 0.00 0.00 87 1026.3
20220628082004 65 135 2.6 4.3 0.00 0.00 0.00 86 1026.3
20220628081503 65 135 2.6 4.3 0.00 0.00 0.00 86 1026.3
20220628081008 65 135 0.0 6.1 0.00 0.00 0.00 85 1026.3
20220628080506 65 135 0.0 6.1 0.00 0.00 0.00 85 1026.3
20220628080006 66 135 5.2 6.1 0.00 0.00 0.00 84 1026.3
20220628075504 65 135 5.2 7.8 0.00 0.00 0.00 84 1026.3
20220628075007 66 135 5.2 6.1 0.00 0.00 0.00 83 1026.3
20220628074504 66 135 3.5 7.0 0.00 0.00 0.00 83 1026.3
20220628074003 66 135 4.3 5.2 0.00 0.00 0.00 82 1026.3
20220628073507 66 135 6.1 6.1 0.00 0.00 0.00 82 1026.3
20220628073006 66 135 6.1 8.7 0.00 0.00 0.00 81 1026.3
20220628072505 66 135 7.8 8.7 0.00 0.00 0.00 81 1025.9
20220628072003 67 135 7.8 12.2 0.00 0.00 0.00 80 1025.9
20220628071507 66 135 7.8 8.7 0.00 0.00 0.00 81 1025.9
20220628071006 67 45 8.7 11.3 0.00 0.00 0.00 80 1025.9
20220628070505 66 45 7.0 12.2 0.00 0.00 0.00 81 1025.9
20220628070003 67 135 6.1 8.7 0.00 0.00 0.00 81 1025.9
20220628065507 66 135 6.1 8.7 0.00 0.00 0.00 82 1026.3
20220628065005 67 135 5.2 7.0 0.00 0.00 0.00 81 1026.3
20220628064506 66 135 5.2 6.1 0.00 0.00 0.00 81 1026.3
20220628064004 67 135 3.5 8.7 0.00 0.00 0.00 80 1026.3
20220628063508 67 135 3.5 4.3 0.00 0.00 0.00 80 1025.9
20220628063005 67 135 3.5 7.0 0.00 0.00 0.00 79 1025.9
20220628062509 67 135 4.3 5.2 0.00 0.00 0.00 79 1025.9
20220628062006 67 135 3.5 7.0 0.00 0.00 0.00 78 1025.9
20220628061504 67 135 4.3 6.1 0.00 0.00 0.00 77 1025.9
20220628061002 68 135 0.0 6.1 0.00 0.00 0.00 76 1025.9
20220628060507 68 135 0.0 6.1 0.00 0.00 0.00 76 1025.6
20220628060007 68 135 6.1 8.7 0.00 0.00 0.00 75 1025.6
20220628055503 68 135 5.2 7.8 0.00 0.00 0.00 75 1025.6
20220628055007 68 135 4.3 6.1 0.00 0.00 0.00 73 1025.6
20220628054506 68 135 5.2 7.8 0.00 0.00 0.00 73 1025.3
20220628054005 69 135 6.1 8.7 0.00 0.00 0.00 72 1025.3
20220628053504 69 135 7.0 11.3 0.00 0.00 0.00 73 1025.3
20220628053003 69 135 7.8 10.4 0.00 0.00 0.00 73 1025.3
20220628052508 69 135 7.0 8.7 0.00 0.01 0.00 73 1025.3
20220628052007 69 135 6.1 6.1 0.00 0.01 0.00 73 1025.3
20220628051506 69 135 5.2 6.1 0.00 0.01 0.00 74 1025.3
20220628051009 70 135 5.2 6.1 0.00 0.02 0.00 73 1025.3
20220628050508 70 135 4.3 5.2 0.00 0.02 0.00 71 1025.3
20220628050005 70 135 4.3 7.0 0.00 0.03 0.00 70 1025.3
20220628045503 70 135 4.3 4.3 0.00 0.04 0.00 70 1024.9
20220628045007 70 135 3.5 6.1 0.00 0.04 0.00 69 1024.9